sat.trackr.live / text

‹ back to catalog

STARLINK-36844

NORAD 68117 · 2026-044S

PAYLOAD ACTIVE UNKNOWN

§ Identity

Operator
Country
US
Launch date
2026-03-08
Launch site
AFWTR
Launch vehicle
Mass (kg)
RCS (m²)

Purposes: comms

External: N2YO · Heavens-Above · Gunter

§ Orbital elements

Epoch: 2026-09-20T03:17:53.278080Z

Period
93.90 min
Inclination
97.2861°
Eccentricity
0.0001214
Mean motion
15.33484661 rev/d
Perigee alt
464.6 km
Apogee alt
466.3 km
Semi-major
6,843.6 km
B*
5.9609e-4
RAAN
222.1166°
Arg perigee
96.7807°
Mean anomaly
263.3574°
Rev number
3,138

§ Raw data

STARLINK-368441 68117U 26044S   26263.13742220  .00019242  00000+0  59609-3 0  99982 68117  97.2861 222.1166 0001214  96.7807 263.3574 15.33484661 31389

JSON: /api/v1/satellites/68117 · /tle

For live sub-satellite position, see the globe view (requires WebGL).

§ Visibility from observer

Set your observer location to see the next 7 days of passes ≥ 10°. The values pass through the URL so the page stays shareable.

No JS? Fill the form by hand. The geolocation button needs JavaScript.